AAL2478 TNCM-KCLT

Flight info

Callsign AAL2478
Flight time 3h 46m
Altitude 34000
Route MODOR2 JUICE B520 LARPP Y318 DONQU Y356 CERDA DCT LETON/M080F340 L451 JAINS/N0467F340 Y436 PITRW STOCR4
Aircraft B38M/M-SDE1FGHILORVWXY/HB1

Departure

Time 2026-05-05 21:32
Airport Princess Juliana International Airport (TNCM)

Arrival

Time 2026-05-06 01:19
Airport Charlotte Douglas International Airport (KCLT)
Time Latitude Longitude Altitude Speed Heading
2026-05-05 21:00 18.04351 -63.11228 31 ft 0 kts 352°
2026-05-05 21:19 18.04334 -63.11225 31 ft 4 kts 352°
2026-05-05 21:19 18.04307 -63.11221 31 ft 4 kts 352°
2026-05-05 21:19 18.04280 -63.11217 31 ft 4 kts 352°
2026-05-05 21:20 18.04262 -63.11215 31 ft 0 kts 352°
2026-05-05 21:22 18.04264 -63.11215 31 ft 1 kts 352°
2026-05-05 21:22 18.04266 -63.11215 31 ft 0 kts 352°
2026-05-05 21:23 18.04267 -63.11216 31 ft 1 kts 348°
2026-05-05 21:23 18.04276 -63.11220 31 ft 2 kts 322°
2026-05-05 21:23 18.04279 -63.11224 31 ft 2 kts 307°
2026-05-05 21:23 18.04281 -63.11232 31 ft 3 kts 285°
2026-05-05 21:24 18.04264 -63.11286 31 ft 13 kts 243°
2026-05-05 21:24 18.04235 -63.11387 31 ft 16 kts 261°
2026-05-05 21:24 18.04209 -63.11491 31 ft 14 kts 237°
2026-05-05 21:24 18.04143 -63.11578 31 ft 16 kts 231°
2026-05-05 21:25 18.04075 -63.11668 30 ft 15 kts 237°
2026-05-05 21:25 18.04052 -63.11780 30 ft 16 kts 263°
2026-05-05 21:25 18.04043 -63.11838 30 ft 0 kts 262°
2026-05-05 21:26 18.04042 -63.11840 30 ft 1 kts 262°
2026-05-05 21:26 18.04042 -63.11845 30 ft 0 kts 262°
2026-05-05 21:29 18.04040 -63.11855 30 ft 4 kts 262°
2026-05-05 21:29 18.04020 -63.11917 30 ft 14 kts 238°
2026-05-05 21:29 18.03955 -63.11963 30 ft 6 kts 159°
2026-05-05 21:30 18.03944 -63.11934 30 ft 0 kts 86°
2026-05-05 21:31 18.03945 -63.11918 30 ft 20 kts 84°
2026-05-05 21:31 18.04009 -63.11470 30 ft 102 kts 82°
2026-05-05 21:32 18.04149 -63.10491 38 ft 166 kts 81°
2026-05-05 21:32 18.04324 -63.09217 600 ft 179 kts 82°
2026-05-05 21:32 18.04216 -63.07952 1533 ft 172 kts 120°
2026-05-05 21:32 18.03425 -63.07055 2385 ft 175 kts 147°
2026-05-05 21:33 18.02199 -63.06637 2771 ft 199 kts 180°
2026-05-05 21:33 18.00758 -63.06835 3256 ft 222 kts 186°
2026-05-05 21:33 17.99156 -63.07001 3836 ft 241 kts 185°
2026-05-05 21:33 17.97425 -63.07170 4483 ft 258 kts 185°
2026-05-05 21:34 17.95621 -63.07350 5417 ft 261 kts 185°
2026-05-05 21:34 17.93800 -63.07536 6345 ft 265 kts 185°
2026-05-05 21:34 17.91950 -63.07727 7254 ft 268 kts 186°
2026-05-05 21:34 17.90127 -63.08144 8102 ft 271 kts 207°
2026-05-05 21:35 17.88716 -63.09440 8946 ft 274 kts 237°
2026-05-05 21:35 17.87969 -63.11285 9722 ft 278 kts 259°
2026-05-05 21:35 17.87921 -63.13326 10433 ft 286 kts 281°
2026-05-05 21:35 17.88690 -63.15311 10817 ft 305 kts 301°
2026-05-05 21:36 17.89699 -63.17343 11157 ft 324 kts 295°
2026-05-05 21:36 17.90686 -63.19537 11441 ft 344 kts 295°
2026-05-05 21:36 17.91708 -63.21764 11783 ft 359 kts 296°
2026-05-05 21:36 17.92835 -63.24187 11744 ft 371 kts 296°
2026-05-05 21:37 17.93977 -63.26633 12384 ft 374 kts 296°
2026-05-05 21:37 17.95156 -63.29120 13049 ft 377 kts 296°
2026-05-05 21:37 17.96318 -63.31560 13669 ft 380 kts 296°
2026-05-05 21:37 17.97507 -63.34053 14250 ft 383 kts 296°
2026-05-05 21:38 17.98717 -63.36588 14879 ft 383 kts 297°
2026-05-05 21:38 17.99893 -63.39049 15492 ft 384 kts 297°
2026-05-05 21:38 18.01090 -63.41555 16068 ft 384 kts 297°
2026-05-05 21:38 18.02293 -63.44068 16611 ft 386 kts 297°
2026-05-05 21:39 18.03505 -63.46604 17124 ft 389 kts 297°
2026-05-05 21:39 18.04725 -63.49154 17597 ft 393 kts 297°
2026-05-05 21:39 18.05955 -63.51729 18074 ft 396 kts 297°
2026-05-05 21:39 18.07195 -63.54321 18528 ft 398 kts 297°
2026-05-05 21:40 18.08441 -63.56930 18933 ft 401 kts 297°
2026-05-05 21:40 18.09696 -63.59556 19345 ft 403 kts 297°
2026-05-05 21:40 18.10951 -63.62182 19750 ft 405 kts 297°
2026-05-05 21:40 18.12217 -63.64832 20143 ft 407 kts 296°
2026-05-05 21:41 18.13174 -63.67633 20526 ft 409 kts 282°
2026-05-05 21:41 18.13707 -63.70580 20893 ft 412 kts 281°
2026-05-05 21:41 18.14239 -63.73556 21179 ft 417 kts 280°
2026-05-05 21:41 18.14760 -63.76558 21566 ft 418 kts 280°
2026-05-05 21:42 18.15273 -63.79575 21883 ft 422 kts 279°
2026-05-05 21:42 18.15788 -63.82624 22235 ft 423 kts 279°
2026-05-05 21:42 18.16303 -63.85682 22588 ft 425 kts 279°
2026-05-05 21:42 18.16820 -63.88751 22866 ft 429 kts 279°
2026-05-05 21:43 18.17338 -63.91843 23260 ft 429 kts 279°
2026-05-05 21:43 18.17859 -63.94941 23532 ft 433 kts 279°
2026-05-05 21:43 18.18385 -63.98076 23776 ft 436 kts 278°
2026-05-05 21:43 18.18911 -64.01215 24053 ft 437 kts 279°
2026-05-05 21:44 18.19432 -64.04332 24283 ft 439 kts 279°
2026-05-05 21:44 18.19962 -64.07498 24604 ft 439 kts 279°
2026-05-05 21:44 18.20729 -64.10618 24839 ft 443 kts 291°
2026-05-05 21:44 18.22174 -64.13460 25166 ft 444 kts 298°
2026-05-05 21:45 18.23754 -64.16275 25338 ft 448 kts 299°
2026-05-05 21:45 18.25363 -64.19085 25626 ft 449 kts 300°
2026-05-05 21:45 18.26994 -64.21899 25838 ft 452 kts 300°
2026-05-05 21:45 18.28641 -64.24719 26121 ft 453 kts 300°
2026-05-05 21:46 18.30296 -64.27548 26384 ft 454 kts 300°
2026-05-05 21:46 18.31957 -64.30387 26625 ft 456 kts 300°
2026-05-05 21:46 18.33623 -64.33236 26875 ft 458 kts 300°
2026-05-05 21:46 18.35290 -64.36086 27120 ft 460 kts 300°
2026-05-05 21:47 18.36967 -64.38957 27402 ft 460 kts 300°
2026-05-05 21:47 18.38645 -64.41829 27637 ft 462 kts 300°
2026-05-05 21:47 18.40335 -64.44723 27859 ft 464 kts 300°
2026-05-05 21:47 18.42026 -64.47621 28098 ft 466 kts 300°
2026-05-05 21:48 18.43152 -64.49551 28246 ft 467 kts 300°
2026-05-05 21:48 18.44853 -64.52468 28476 ft 469 kts 300°
2026-05-05 21:48 18.46560 -64.55396 28704 ft 470 kts 300°
2026-05-05 21:48 18.48826 -64.59284 29013 ft 472 kts 300°
2026-05-05 21:49 18.50545 -64.62238 29218 ft 474 kts 300°
2026-05-05 21:49 18.51710 -64.64240 29366 ft 475 kts 300°
2026-05-05 21:49 18.53443 -64.67218 29585 ft 476 kts 300°
2026-05-05 21:49 18.55175 -64.70195 29846 ft 477 kts 300°
2026-05-05 21:50 18.56907 -64.73175 30146 ft 476 kts 300°
2026-05-05 21:50 18.58636 -64.76151 30408 ft 476 kts 300°
2026-05-05 21:50 18.60342 -64.79089 30690 ft 475 kts 300°
2026-05-05 21:50 18.62058 -64.82045 30979 ft 473 kts 300°
2026-05-05 21:51 18.63773 -64.85001 31284 ft 472 kts 300°
2026-05-05 21:51 18.65480 -64.87946 31577 ft 470 kts 300°
2026-05-05 21:51 18.67187 -64.90890 31879 ft 469 kts 300°
2026-05-05 21:51 18.68885 -64.93821 32196 ft 468 kts 299°
2026-05-05 21:52 18.72261 -64.99652 32834 ft 464 kts 299°
2026-05-05 21:52 18.73938 -65.02550 33149 ft 463 kts 299°
2026-05-05 21:52 18.75611 -65.05444 33463 ft 461 kts 299°
2026-05-05 21:53 18.77278 -65.08328 33795 ft 459 kts 299°
2026-05-05 21:53 18.78938 -65.11201 34060 ft 458 kts 299°
2026-05-05 21:53 18.80592 -65.14065 34087 ft 457 kts 298°
2026-05-05 21:54 18.83881 -65.19764 34077 ft 454 kts 298°
2026-05-05 21:54 18.87141 -65.25419 34073 ft 454 kts 298°
2026-05-05 21:55 18.90424 -65.31117 34081 ft 454 kts 298°
2026-05-05 21:55 18.93707 -65.36820 34072 ft 454 kts 298°
2026-05-05 21:56 18.96983 -65.42519 34072 ft 454 kts 298°
2026-05-05 21:56 19.00252 -65.48211 34071 ft 454 kts 298°
2026-05-05 21:57 19.03526 -65.53916 34069 ft 454 kts 298°
2026-05-05 21:57 19.06796 -65.59621 34069 ft 454 kts 298°
2026-05-05 21:58 19.10067 -65.65331 34083 ft 453 kts 298°
2026-05-05 21:58 19.13322 -65.71020 34070 ft 453 kts 298°
2026-05-05 21:59 19.16582 -65.76722 34068 ft 453 kts 298°
2026-05-05 21:59 19.19822 -65.82393 34074 ft 453 kts 298°
2026-05-05 22:00 19.23079 -65.88101 34062 ft 453 kts 298°
2026-05-05 22:00 19.26329 -65.93802 34079 ft 453 kts 298°
2026-05-05 22:01 19.29580 -65.99509 34058 ft 452 kts 298°
2026-05-05 22:01 19.32825 -66.05212 34065 ft 452 kts 298°
2026-05-05 22:02 19.36068 -66.10916 34061 ft 452 kts 298°
2026-05-05 22:02 19.39306 -66.16617 34060 ft 452 kts 298°
2026-05-05 22:03 19.42546 -66.22326 34062 ft 452 kts 298°
2026-05-05 22:03 19.45764 -66.28004 34063 ft 452 kts 298°
2026-05-05 22:04 19.49000 -66.33716 34061 ft 452 kts 298°
2026-05-05 22:04 19.52228 -66.39422 34064 ft 453 kts 297°
2026-05-05 22:05 19.55467 -66.45151 34060 ft 453 kts 297°
2026-05-05 22:05 19.58742 -66.50867 34055 ft 454 kts 302°
2026-05-05 22:06 19.62497 -66.56274 34064 ft 456 kts 303°
2026-05-05 22:06 19.66284 -66.61663 34066 ft 456 kts 303°
2026-05-05 22:07 19.70050 -66.67020 34064 ft 456 kts 303°
2026-05-05 22:07 19.73840 -66.72416 34064 ft 456 kts 303°
2026-05-05 22:08 19.77626 -66.77810 34061 ft 456 kts 303°
2026-05-05 22:08 19.81406 -66.83202 34063 ft 456 kts 303°
2026-05-05 22:09 19.85189 -66.88602 34064 ft 456 kts 303°
2026-05-05 22:09 19.88965 -66.93996 34063 ft 454 kts 304°
2026-05-05 22:10 19.92736 -66.99389 34065 ft 454 kts 304°
2026-05-05 22:10 19.96496 -67.04772 34064 ft 454 kts 304°
2026-05-05 22:11 20.00238 -67.10132 34064 ft 454 kts 304°
2026-05-05 22:11 20.04003 -67.15531 34064 ft 454 kts 304°
2026-05-05 22:12 20.07765 -67.20931 34064 ft 454 kts 304°
2026-05-05 22:12 20.11512 -67.26313 34063 ft 453 kts 304°
2026-05-05 22:13 20.15256 -67.31698 34062 ft 453 kts 304°
2026-05-05 22:13 20.18998 -67.37084 34061 ft 453 kts 304°
2026-05-05 22:14 20.22739 -67.42473 34064 ft 453 kts 304°
2026-05-05 22:14 20.26472 -67.47854 34064 ft 453 kts 304°
2026-05-05 22:15 20.30203 -67.53239 34068 ft 450 kts 303°
2026-05-05 22:15 20.33915 -67.58602 34067 ft 449 kts 303°
2026-05-05 22:16 20.37618 -67.63955 34065 ft 449 kts 303°
2026-05-05 22:16 20.41291 -67.69271 34064 ft 449 kts 303°
2026-05-05 22:17 20.44987 -67.74626 34064 ft 449 kts 303°
2026-05-05 22:17 20.48684 -67.79986 34064 ft 448 kts 303°
2026-05-05 22:18 20.52385 -67.85356 34067 ft 449 kts 303°
2026-05-05 22:18 20.56071 -67.90711 34067 ft 449 kts 303°
2026-05-05 22:19 20.59764 -67.96080 34064 ft 449 kts 303°
2026-05-05 22:19 20.63457 -68.01452 34064 ft 449 kts 303°
2026-05-05 22:20 20.67147 -68.06826 34082 ft 448 kts 303°
2026-05-05 22:20 20.70851 -68.12095 34051 ft 448 kts 310°
2026-05-05 22:21 20.75648 -68.16416 34045 ft 453 kts 317°
2026-05-05 22:21 20.80539 -68.20661 34071 ft 453 kts 317°
2026-05-05 22:22 20.85434 -68.24871 34062 ft 451 kts 317°
2026-05-05 22:22 20.90317 -68.29070 34068 ft 451 kts 317°
2026-05-05 22:23 20.95215 -68.33286 34065 ft 451 kts 317°
2026-05-05 22:23 21.00110 -68.37503 34064 ft 451 kts 317°
2026-05-05 22:24 21.05003 -68.41721 34073 ft 450 kts 317°
2026-05-05 22:24 21.09865 -68.45916 34068 ft 450 kts 317°
2026-05-05 22:25 21.14706 -68.50098 34061 ft 450 kts 317°
2026-05-05 22:25 21.19576 -68.54307 34073 ft 450 kts 317°
2026-05-05 22:26 21.24437 -68.58512 34067 ft 449 kts 317°
2026-05-05 22:26 21.29287 -68.62713 34064 ft 449 kts 317°
2026-05-05 22:27 21.34144 -68.66922 34061 ft 449 kts 317°
2026-05-05 22:27 21.39001 -68.71135 34072 ft 449 kts 317°
2026-05-05 22:28 21.43863 -68.75356 34065 ft 449 kts 317°
2026-05-05 22:28 21.48709 -68.79568 34062 ft 449 kts 317°
2026-05-05 22:29 21.53570 -68.83795 34062 ft 449 kts 317°
2026-05-05 22:29 21.58424 -68.88020 34070 ft 448 kts 317°
2026-05-05 22:30 21.63265 -68.92238 34064 ft 447 kts 317°
2026-05-05 22:30 21.68088 -68.96444 34064 ft 448 kts 317°
2026-05-05 22:31 21.72893 -69.00638 34080 ft 447 kts 317°
2026-05-05 22:31 21.77722 -69.04857 34064 ft 447 kts 317°
2026-05-05 22:32 21.82546 -69.09074 34067 ft 447 kts 317°
2026-05-05 22:32 21.87363 -69.13291 34066 ft 447 kts 317°
2026-05-05 22:33 21.92185 -69.17514 34063 ft 447 kts 317°
2026-05-05 22:33 21.97005 -69.21740 34067 ft 446 kts 317°
2026-05-05 22:34 22.01806 -69.25954 34063 ft 445 kts 317°
2026-05-05 22:34 22.06593 -69.30158 34074 ft 445 kts 317°
2026-05-05 22:35 22.11407 -69.34390 34071 ft 447 kts 317°
2026-05-05 22:35 22.16231 -69.38635 34066 ft 447 kts 317°
2026-05-05 22:36 22.21052 -69.42881 34063 ft 447 kts 317°
2026-05-05 22:36 22.25830 -69.47093 34064 ft 447 kts 317°
2026-05-05 22:37 22.30652 -69.51348 34067 ft 447 kts 317°
2026-05-05 22:37 22.35469 -69.55602 34065 ft 446 kts 317°
2026-05-05 22:38 22.40274 -69.59849 34068 ft 446 kts 317°
2026-05-05 22:38 22.44256 -69.63373 34071 ft 445 kts 317°
2026-05-05 22:39 22.49046 -69.67613 34073 ft 445 kts 317°
2026-05-05 22:39 22.53841 -69.71863 34072 ft 445 kts 317°
2026-05-05 22:40 22.58629 -69.76110 34071 ft 445 kts 317°
2026-05-05 22:40 22.63407 -69.80351 34069 ft 445 kts 317°
2026-05-05 22:41 22.68195 -69.84606 34063 ft 445 kts 317°
2026-05-05 22:41 22.72977 -69.88859 34058 ft 444 kts 317°
2026-05-05 22:42 22.77701 -69.93137 34072 ft 443 kts 316°
2026-05-05 22:42 22.82379 -69.97383 34066 ft 442 kts 316°
2026-05-05 22:43 22.87098 -70.01669 34058 ft 442 kts 316°
2026-05-05 22:43 22.91813 -70.05954 34063 ft 443 kts 316°
2026-05-05 22:44 22.96535 -70.10250 34065 ft 443 kts 316°
2026-05-05 22:44 23.01244 -70.14538 34068 ft 443 kts 316°
2026-05-05 22:45 23.05966 -70.18842 34071 ft 443 kts 316°
2026-05-05 22:45 23.10668 -70.23133 34088 ft 439 kts 316°
2026-05-05 22:46 23.15337 -70.27396 34071 ft 438 kts 316°
2026-05-05 22:46 23.20001 -70.31659 34068 ft 438 kts 316°
2026-05-05 22:47 23.24653 -70.35916 34067 ft 438 kts 316°
2026-05-05 22:47 23.29309 -70.40180 34067 ft 438 kts 316°
2026-05-05 22:48 23.33967 -70.44450 34067 ft 438 kts 316°
2026-05-05 22:48 23.38625 -70.48724 34067 ft 438 kts 316°
2026-05-05 22:49 23.43238 -70.52961 34067 ft 438 kts 316°
2026-05-05 22:49 23.47881 -70.57228 34068 ft 435 kts 316°
2026-05-05 22:50 23.52497 -70.61476 34068 ft 434 kts 316°
2026-05-05 22:50 23.57116 -70.65730 34067 ft 434 kts 316°
2026-05-05 22:51 23.61724 -70.69979 34070 ft 434 kts 316°
2026-05-05 22:51 23.66337 -70.74236 34069 ft 434 kts 316°
2026-05-05 22:52 23.70950 -70.78497 34064 ft 434 kts 316°
2026-05-05 22:52 23.75560 -70.82759 34064 ft 434 kts 316°
2026-05-05 22:53 23.80165 -70.87021 34067 ft 435 kts 316°
2026-05-05 22:53 23.84799 -70.91314 34066 ft 438 kts 317°
2026-05-05 22:54 23.89443 -70.95619 34066 ft 438 kts 317°
2026-05-05 22:54 23.94081 -70.99925 34067 ft 438 kts 317°
2026-05-05 22:55 23.98716 -71.04230 34064 ft 438 kts 317°
2026-05-05 22:55 24.03352 -71.08542 34063 ft 438 kts 317°
2026-05-05 22:56 24.07958 -71.12830 34062 ft 438 kts 317°
2026-05-05 22:56 24.12598 -71.17154 34060 ft 438 kts 317°
2026-05-05 22:57 24.17225 -71.21469 34064 ft 437 kts 316°
2026-05-05 22:57 24.21854 -71.25791 34060 ft 437 kts 316°
2026-05-05 22:58 24.26486 -71.30120 34060 ft 437 kts 316°
2026-05-05 22:58 24.31113 -71.34449 34063 ft 437 kts 316°
2026-05-05 22:59 24.35737 -71.38779 34059 ft 437 kts 316°
2026-05-05 22:59 24.40337 -71.43091 34066 ft 437 kts 316°
2026-05-05 23:00 24.47275 -71.49602 34063 ft 437 kts 316°
2026-05-05 23:00 24.51871 -71.53921 34067 ft 433 kts 316°
2026-05-05 23:01 24.56418 -71.58198 34074 ft 426 kts 317°
2026-05-05 23:01 24.60885 -71.62404 34061 ft 421 kts 317°
2026-05-05 23:02 24.65340 -71.66603 34059 ft 422 kts 317°
2026-05-05 23:02 24.69765 -71.70778 34055 ft 421 kts 317°
2026-05-05 23:03 24.74205 -71.74970 34056 ft 421 kts 317°
2026-05-05 23:03 24.78656 -71.79177 34068 ft 421 kts 317°
2026-05-05 23:04 24.83097 -71.83379 34077 ft 420 kts 316°
2026-05-05 23:04 24.87511 -71.87558 34058 ft 418 kts 316°
2026-05-05 23:05 24.91913 -71.91730 34071 ft 417 kts 317°
2026-05-05 23:05 24.96256 -71.95850 34066 ft 409 kts 317°
2026-05-05 23:06 25.00659 -71.99820 34044 ft 411 kts 326°
2026-05-05 23:06 25.05630 -72.02980 34045 ft 413 kts 327°
2026-05-05 23:07 25.10603 -72.06154 34057 ft 413 kts 327°
2026-05-05 23:07 25.15568 -72.09317 34090 ft 413 kts 326°
2026-05-05 23:08 25.20514 -72.12470 34063 ft 413 kts 326°
2026-05-05 23:08 25.25491 -72.15646 34061 ft 413 kts 326°
2026-05-05 23:09 25.30473 -72.18828 34061 ft 413 kts 326°
2026-05-05 23:09 25.35448 -72.22009 34062 ft 413 kts 326°
2026-05-05 23:10 25.40423 -72.25193 34063 ft 413 kts 326°
2026-05-05 23:10 25.45356 -72.28353 34063 ft 407 kts 327°
2026-05-05 23:11 25.50250 -72.31491 34074 ft 406 kts 326°
2026-05-05 23:11 25.55102 -72.34605 34069 ft 406 kts 326°
2026-05-05 23:12 25.59976 -72.37736 34068 ft 406 kts 326°
2026-05-05 23:12 25.64889 -72.40896 34064 ft 406 kts 326°
2026-05-05 23:13 25.69736 -72.44015 34068 ft 406 kts 326°
2026-05-05 23:13 25.74617 -72.47160 34067 ft 406 kts 326°
2026-05-05 23:14 25.79491 -72.50303 34104 ft 406 kts 326°
2026-05-05 23:14 25.84363 -72.53447 34071 ft 404 kts 326°
2026-05-05 23:15 25.89224 -72.56588 34070 ft 404 kts 326°
2026-05-05 23:15 25.94089 -72.59735 34072 ft 404 kts 326°
2026-05-05 23:16 25.98918 -72.62861 34074 ft 399 kts 326°
2026-05-05 23:16 26.03713 -72.65968 34073 ft 399 kts 326°
2026-05-05 23:17 26.08505 -72.69076 34074 ft 399 kts 326°
2026-05-05 23:17 26.13300 -72.72189 34095 ft 399 kts 326°
2026-05-05 23:18 26.18087 -72.75300 34079 ft 398 kts 326°
2026-05-05 23:18 26.22833 -72.78387 34077 ft 399 kts 326°
2026-05-05 23:19 26.27625 -72.81507 34075 ft 399 kts 326°
2026-05-05 23:19 26.32414 -72.84628 34074 ft 399 kts 326°
2026-05-05 23:20 26.37202 -72.87752 34077 ft 398 kts 326°
2026-05-05 23:20 26.41989 -72.90878 34078 ft 398 kts 326°
2026-05-05 23:21 26.46753 -72.93992 34086 ft 396 kts 326°
2026-05-05 23:21 26.51491 -72.97091 34077 ft 393 kts 326°
2026-05-05 23:22 26.56210 -73.00182 34078 ft 393 kts 326°
2026-05-05 23:22 26.60901 -73.03257 34081 ft 393 kts 326°
2026-05-05 23:23 26.65610 -73.06347 34081 ft 393 kts 326°
2026-05-05 23:23 26.70321 -73.09441 34081 ft 393 kts 326°
2026-05-05 23:24 26.75039 -73.12543 34081 ft 393 kts 326°
2026-05-05 23:24 26.79757 -73.15647 34081 ft 393 kts 326°
2026-05-05 23:25 26.84470 -73.18752 34081 ft 393 kts 326°
2026-05-05 23:25 26.89171 -73.21852 34085 ft 393 kts 326°
2026-05-05 23:26 26.93883 -73.24961 34079 ft 393 kts 326°
2026-05-05 23:26 26.97796 -73.27546 34084 ft 393 kts 326°
2026-05-05 23:27 27.02505 -73.30659 34069 ft 393 kts 326°
2026-05-05 23:27 27.07965 -73.34274 34100 ft 392 kts 326°
2026-05-05 23:28 27.11885 -73.36871 34085 ft 390 kts 326°
2026-05-05 23:28 27.16570 -73.39977 34084 ft 391 kts 326°
2026-05-05 23:29 27.21220 -73.43064 34085 ft 391 kts 326°
2026-05-05 23:29 27.25898 -73.46172 34086 ft 391 kts 326°
2026-05-05 23:30 27.30569 -73.49279 34086 ft 390 kts 326°
2026-05-05 23:30 27.35245 -73.52392 34086 ft 390 kts 326°
2026-05-05 23:31 27.39920 -73.55507 34106 ft 390 kts 325°
2026-05-05 23:31 27.44582 -73.58617 34088 ft 390 kts 325°
2026-05-05 23:32 27.49253 -73.61736 34087 ft 390 kts 325°
2026-05-05 23:32 27.53905 -73.64845 34086 ft 390 kts 325°
2026-05-05 23:33 27.58569 -73.67966 34084 ft 390 kts 325°
2026-05-05 23:33 27.63238 -73.71093 34085 ft 390 kts 325°
2026-05-05 23:34 27.67902 -73.74220 34090 ft 390 kts 325°
2026-05-05 23:34 27.72556 -73.77343 34101 ft 389 kts 325°
2026-05-05 23:35 27.77201 -73.80463 34092 ft 389 kts 325°
2026-05-05 23:35 27.81853 -73.83592 34090 ft 389 kts 325°
2026-05-05 23:36 27.86498 -73.86718 34091 ft 389 kts 325°
2026-05-05 23:36 27.91149 -73.89852 34092 ft 389 kts 325°
2026-05-05 23:37 27.95760 -73.92961 34093 ft 389 kts 325°
2026-05-05 23:37 28.00408 -73.96098 34124 ft 389 kts 325°
2026-05-05 23:38 28.05046 -73.99232 34097 ft 388 kts 325°
2026-05-05 23:38 28.09688 -74.02372 34091 ft 389 kts 325°
2026-05-05 23:39 28.14329 -74.05514 34094 ft 389 kts 325°
2026-05-05 23:39 28.18973 -74.08662 34095 ft 389 kts 325°
2026-05-05 23:40 28.23620 -74.11815 34095 ft 389 kts 324°
2026-05-05 23:40 28.27914 -74.15471 34097 ft 386 kts 319°
2026-05-05 23:41 28.32120 -74.19199 34121 ft 386 kts 319°
2026-05-05 23:41 28.36332 -74.22947 34102 ft 385 kts 319°
2026-05-05 23:42 28.40549 -74.26703 34097 ft 385 kts 319°
2026-05-05 23:42 28.44767 -74.30466 34097 ft 385 kts 319°
2026-05-05 23:43 28.48983 -74.34230 34099 ft 385 kts 319°
2026-05-05 23:43 28.53205 -74.38004 34093 ft 387 kts 319°
2026-05-05 23:44 28.57443 -74.41795 34096 ft 388 kts 319°
2026-05-05 23:44 28.61679 -74.45590 34097 ft 388 kts 319°
2026-05-05 23:45 28.65910 -74.49383 34116 ft 386 kts 319°
2026-05-05 23:45 28.70125 -74.53166 34104 ft 386 kts 319°
2026-05-05 23:46 28.74330 -74.56944 34106 ft 386 kts 319°
2026-05-05 23:46 28.78540 -74.60731 34104 ft 386 kts 319°
2026-05-05 23:47 28.82754 -74.64526 34104 ft 386 kts 319°
2026-05-05 23:47 28.86970 -74.68326 34105 ft 386 kts 319°
2026-05-05 23:48 28.91152 -74.72099 34105 ft 386 kts 319°
2026-05-05 23:48 28.95353 -74.75894 34150 ft 386 kts 319°
2026-05-05 23:49 28.99553 -74.79691 34106 ft 384 kts 319°
2026-05-05 23:49 29.03744 -74.83485 34106 ft 385 kts 319°
2026-05-05 23:50 29.07943 -74.87291 34108 ft 385 kts 319°
2026-05-05 23:50 29.12137 -74.91095 34108 ft 385 kts 319°
2026-05-05 23:51 29.16326 -74.94899 34107 ft 385 kts 319°
2026-05-05 23:51 29.20522 -74.98713 34110 ft 385 kts 318°
2026-05-05 23:52 29.24718 -75.02532 34110 ft 385 kts 318°
2026-05-05 23:52 29.28909 -75.06350 34105 ft 385 kts 318°
2026-05-05 23:53 29.33105 -75.10177 34112 ft 387 kts 318°
2026-05-05 23:53 29.37284 -75.13993 34110 ft 386 kts 318°
2026-05-05 23:54 29.41491 -75.17838 34110 ft 386 kts 318°
2026-05-05 23:54 29.45696 -75.21686 34114 ft 386 kts 318°
2026-05-05 23:55 29.49895 -75.25532 34112 ft 386 kts 318°
2026-05-05 23:55 29.54088 -75.29377 34113 ft 386 kts 318°
2026-05-05 23:56 29.58291 -75.33236 34155 ft 386 kts 318°
2026-05-05 23:56 29.62485 -75.37090 34117 ft 386 kts 318°
2026-05-05 23:57 29.66679 -75.40949 34118 ft 386 kts 318°
2026-05-05 23:57 29.70882 -75.44820 34107 ft 388 kts 318°
2026-05-05 23:58 29.75070 -75.48681 34113 ft 389 kts 318°
2026-05-05 23:58 29.79287 -75.52574 34114 ft 389 kts 318°
2026-05-05 23:59 29.83504 -75.56471 34116 ft 389 kts 318°
2026-05-05 23:59 29.87721 -75.60372 34115 ft 389 kts 318°
2026-05-06 00:00 29.91931 -75.64272 34120 ft 389 kts 318°
2026-05-06 00:00 29.96149 -75.68183 34119 ft 389 kts 318°
2026-05-06 00:01 30.00362 -75.72093 34116 ft 389 kts 318°
2026-05-06 00:01 30.04578 -75.76012 34116 ft 389 kts 318°
2026-05-06 00:02 30.08797 -75.79937 34093 ft 391 kts 318°
2026-05-06 00:02 30.13063 -75.83910 34111 ft 395 kts 318°
2026-05-06 00:03 30.17338 -75.87896 34115 ft 395 kts 318°
2026-05-06 00:03 30.21609 -75.91884 34129 ft 393 kts 318°
2026-05-06 00:04 30.25833 -75.95831 34120 ft 393 kts 318°
2026-05-06 00:04 30.30085 -75.99810 34118 ft 393 kts 318°
2026-05-06 00:05 30.36455 -76.05779 34121 ft 393 kts 318°
2026-05-06 00:06 30.40711 -76.09773 34118 ft 393 kts 318°
2026-05-06 00:06 30.44962 -76.13767 34122 ft 393 kts 317°
2026-05-06 00:07 30.49237 -76.17788 34116 ft 398 kts 318°
2026-05-06 00:07 30.53525 -76.21825 34124 ft 396 kts 318°
2026-05-06 00:08 30.57798 -76.25853 34125 ft 396 kts 318°
2026-05-06 00:08 30.62073 -76.29889 34124 ft 396 kts 318°
2026-05-06 00:09 30.66323 -76.33905 34127 ft 396 kts 318°
2026-05-06 00:09 30.70591 -76.37943 34126 ft 396 kts 318°
2026-05-06 00:10 30.74863 -76.41989 34124 ft 396 kts 318°
2026-05-06 00:10 30.79131 -76.46037 34128 ft 396 kts 318°
2026-05-06 00:11 30.83401 -76.50091 34138 ft 395 kts 318°
2026-05-06 00:11 30.87679 -76.54158 34131 ft 399 kts 318°
2026-05-06 00:12 30.91968 -76.58239 34130 ft 399 kts 318°
2026-05-06 00:12 30.96264 -76.62333 34128 ft 399 kts 318°
2026-05-06 00:13 31.00557 -76.66428 34121 ft 399 kts 318°
2026-05-06 00:13 31.04123 -76.69835 34122 ft 399 kts 318°
2026-05-06 00:14 31.08404 -76.73926 34119 ft 399 kts 318°
2026-05-06 00:14 31.12691 -76.78028 34143 ft 398 kts 318°
2026-05-06 00:15 31.16962 -76.82120 34136 ft 397 kts 318°
2026-05-06 00:15 31.21231 -76.86215 34123 ft 397 kts 318°
2026-05-06 00:16 31.25500 -76.90315 34119 ft 397 kts 319°
2026-05-06 00:16 31.29733 -76.94386 34122 ft 397 kts 319°
2026-05-06 00:17 31.34001 -76.98494 34121 ft 397 kts 319°
2026-05-06 00:17 31.38140 -77.02760 34127 ft 397 kts 317°
2026-05-06 00:18 31.42258 -77.07060 34159 ft 396 kts 317°
2026-05-06 00:18 31.46360 -77.11339 34119 ft 395 kts 317°
2026-05-06 00:19 31.50466 -77.15626 34120 ft 395 kts 317°
2026-05-06 00:19 31.54571 -77.19916 34125 ft 395 kts 317°
2026-05-06 00:20 31.58669 -77.24204 34118 ft 394 kts 317°
2026-05-06 00:20 31.62748 -77.28478 34132 ft 393 kts 317°
2026-05-06 00:21 31.66813 -77.32753 34129 ft 393 kts 317°
2026-05-06 00:21 31.70881 -77.37038 34127 ft 393 kts 317°
2026-05-06 00:22 31.74923 -77.41300 34122 ft 392 kts 317°
2026-05-06 00:22 31.78982 -77.45586 34124 ft 392 kts 317°
2026-05-06 00:23 31.83041 -77.49877 34124 ft 392 kts 317°
2026-05-06 00:23 31.87093 -77.54165 34124 ft 392 kts 317°
2026-05-06 00:24 31.91153 -77.58468 34124 ft 392 kts 317°
2026-05-06 00:24 31.95202 -77.62764 34120 ft 391 kts 317°
2026-05-06 00:25 31.99242 -77.67056 34116 ft 391 kts 317°
2026-05-06 00:25 32.03279 -77.71352 34138 ft 391 kts 317°
2026-05-06 00:26 32.07320 -77.75658 34124 ft 391 kts 317°
2026-05-06 00:26 32.11357 -77.79964 34122 ft 391 kts 317°
2026-05-06 00:27 32.15396 -77.84278 34119 ft 391 kts 317°
2026-05-06 00:27 32.18998 -77.88982 34104 ft 392 kts 299°
2026-05-06 00:28 32.21165 -77.94922 34110 ft 396 kts 296°
2026-05-06 00:28 32.23221 -78.00950 34111 ft 395 kts 295°
2026-05-06 00:29 32.25228 -78.06987 34118 ft 395 kts 295°
2026-05-06 00:29 32.27226 -78.13047 34113 ft 395 kts 295°
2026-05-06 00:30 32.29216 -78.19102 34111 ft 395 kts 295°
2026-05-06 00:30 32.31204 -78.25158 34110 ft 395 kts 295°
2026-05-06 00:31 32.33190 -78.31221 34107 ft 395 kts 295°
2026-05-06 00:31 32.35172 -78.37281 34132 ft 395 kts 295°
2026-05-06 00:32 32.37144 -78.43315 34111 ft 396 kts 295°
2026-05-06 00:32 32.39125 -78.49388 34109 ft 396 kts 295°
2026-05-06 00:33 32.41103 -78.55466 34105 ft 396 kts 295°
2026-05-06 00:33 32.43079 -78.61549 34107 ft 396 kts 295°
2026-05-06 00:34 32.45054 -78.67638 34112 ft 396 kts 295°
2026-05-06 00:34 32.47024 -78.73725 34099 ft 395 kts 295°
2026-05-06 00:35 32.48985 -78.79795 34101 ft 395 kts 295°
2026-05-06 00:35 32.50946 -78.85877 34102 ft 395 kts 294°
2026-05-06 00:36 32.52903 -78.91961 34102 ft 395 kts 294°
2026-05-06 00:36 32.54859 -78.98050 34102 ft 395 kts 294°
2026-05-06 00:37 32.56797 -79.04096 34102 ft 395 kts 294°
2026-05-06 00:37 32.58748 -79.10194 34112 ft 397 kts 294°
2026-05-06 00:38 32.60702 -79.16312 34104 ft 396 kts 294°
2026-05-06 00:38 32.62651 -79.22429 34109 ft 396 kts 294°
2026-05-06 00:39 32.64598 -79.28551 34091 ft 396 kts 294°
2026-05-06 00:39 32.66541 -79.34669 34090 ft 397 kts 294°
2026-05-06 00:40 32.68484 -79.40802 34088 ft 397 kts 294°
2026-05-06 00:40 32.70428 -79.46950 34087 ft 397 kts 294°
2026-05-06 00:41 32.72505 -79.53011 34076 ft 394 kts 303°
2026-05-06 00:41 32.74240 -79.55495 34071 ft 391 kts 318°
2026-05-06 00:41 32.76499 -79.57285 34110 ft 396 kts 331°
2026-05-06 00:42 32.81787 -79.59380 34090 ft 403 kts 339°
2026-05-06 00:42 32.87224 -79.61056 34092 ft 404 kts 341°
2026-05-06 00:43 32.92691 -79.62630 34086 ft 404 kts 341°
2026-05-06 00:43 32.98173 -79.64176 34092 ft 404 kts 341°
2026-05-06 00:44 33.03639 -79.65714 34093 ft 404 kts 341°
2026-05-06 00:44 33.09080 -79.67247 34092 ft 405 kts 341°
2026-05-06 00:45 33.14561 -79.68793 34088 ft 405 kts 341°
2026-05-06 00:45 33.20049 -79.70343 34091 ft 404 kts 341°
2026-05-06 00:46 33.25522 -79.71891 33862 ft 405 kts 341°
2026-05-06 00:46 33.28266 -79.72667 33638 ft 406 kts 341°
2026-05-06 00:46 33.31022 -79.73448 33411 ft 408 kts 341°
2026-05-06 00:46 33.33791 -79.74233 33186 ft 410 kts 341°
2026-05-06 00:47 33.36574 -79.75022 32957 ft 412 kts 342°
2026-05-06 00:47 33.39381 -79.75819 32723 ft 414 kts 342°
2026-05-06 00:47 33.42196 -79.76618 32493 ft 416 kts 342°
2026-05-06 00:47 33.45018 -79.77420 32270 ft 418 kts 342°
2026-05-06 00:48 33.47858 -79.78228 32047 ft 420 kts 342°
2026-05-06 00:48 33.50705 -79.79038 31823 ft 422 kts 342°
2026-05-06 00:48 33.53537 -79.79845 31626 ft 424 kts 342°
2026-05-06 00:48 33.56412 -79.80663 31401 ft 426 kts 342°
2026-05-06 00:49 33.59301 -79.81495 31171 ft 422 kts 340°
2026-05-06 00:49 33.62022 -79.82600 30956 ft 408 kts 336°
2026-05-06 00:49 33.64696 -79.83718 30731 ft 406 kts 336°
2026-05-06 00:49 33.67364 -79.84813 30516 ft 405 kts 337°
2026-05-06 00:50 33.70035 -79.85898 30307 ft 405 kts 337°
2026-05-06 00:50 33.72699 -79.86976 30081 ft 405 kts 337°
2026-05-06 00:50 33.75373 -79.88056 29808 ft 405 kts 337°
2026-05-06 00:50 33.78042 -79.89135 29559 ft 404 kts 337°
2026-05-06 00:51 33.80699 -79.90211 29320 ft 403 kts 337°
2026-05-06 00:51 33.85964 -79.92388 28832 ft 402 kts 337°
2026-05-06 00:51 33.88641 -79.93494 28583 ft 401 kts 337°
2026-05-06 00:52 33.91242 -79.94570 28344 ft 400 kts 337°
2026-05-06 00:52 33.93869 -79.95657 28102 ft 399 kts 337°
2026-05-06 00:52 33.96474 -79.96736 27495 ft 398 kts 337°
2026-05-06 00:52 33.99118 -79.97831 26606 ft 405 kts 337°
2026-05-06 00:53 34.01696 -79.99173 25894 ft 402 kts 328°
2026-05-06 00:53 34.04179 -80.00699 25329 ft 396 kts 330°
2026-05-06 00:53 34.06643 -80.02167 24777 ft 394 kts 330°
2026-05-06 00:53 34.09107 -80.03620 24228 ft 393 kts 330°
2026-05-06 00:54 34.11567 -80.05062 23684 ft 393 kts 330°
2026-05-06 00:54 34.14024 -80.06501 23041 ft 393 kts 330°
2026-05-06 00:54 34.16481 -80.07939 22397 ft 392 kts 331°
2026-05-06 00:54 34.18926 -80.09370 21763 ft 390 kts 331°
2026-05-06 00:55 34.21336 -80.10783 21154 ft 379 kts 331°
2026-05-06 00:55 34.23676 -80.12155 20587 ft 368 kts 331°
2026-05-06 00:55 34.25940 -80.13483 20216 ft 356 kts 331°
2026-05-06 00:55 34.28175 -80.14796 19965 ft 357 kts 331°
2026-05-06 00:56 34.30404 -80.16105 19706 ft 356 kts 331°
2026-05-06 00:56 34.32630 -80.17413 19452 ft 356 kts 331°
2026-05-06 00:56 34.34824 -80.18704 19227 ft 356 kts 331°
2026-05-06 00:56 34.37052 -80.20015 18977 ft 355 kts 331°
2026-05-06 00:57 34.39269 -80.21320 18726 ft 353 kts 331°
2026-05-06 00:57 34.41466 -80.22621 18447 ft 352 kts 331°
2026-05-06 00:57 34.43659 -80.23925 18197 ft 351 kts 331°
2026-05-06 00:57 34.45848 -80.25227 17930 ft 350 kts 331°
2026-05-06 00:58 34.48026 -80.26523 17688 ft 348 kts 331°
2026-05-06 00:58 34.50199 -80.27817 17442 ft 347 kts 331°
2026-05-06 00:58 34.52362 -80.29106 17197 ft 346 kts 331°
2026-05-06 00:58 34.54519 -80.30392 16942 ft 345 kts 331°
2026-05-06 00:59 34.56482 -80.32025 17136 ft 342 kts 312°
2026-05-06 00:59 34.57892 -80.34321 17630 ft 339 kts 302°
2026-05-06 00:59 34.59441 -80.36534 16648 ft 353 kts 320°
2026-05-06 00:59 34.61502 -80.38153 15895 ft 353 kts 323°
2026-05-06 01:00 34.63523 -80.39862 15248 ft 352 kts 322°
2026-05-06 01:00 34.65494 -80.41522 15008 ft 333 kts 322°
2026-05-06 01:00 34.67354 -80.43076 14776 ft 316 kts 322°
2026-05-06 01:00 34.69123 -80.44546 14555 ft 301 kts 322°
2026-05-06 01:01 34.70846 -80.45981 14340 ft 306 kts 322°
2026-05-06 01:01 34.72622 -80.47461 14117 ft 312 kts 322°
2026-05-06 01:01 34.74419 -80.48960 13884 ft 315 kts 322°
2026-05-06 01:01 34.76226 -80.50466 13579 ft 314 kts 322°
2026-05-06 01:02 34.78027 -80.51967 13260 ft 313 kts 322°
2026-05-06 01:02 34.79817 -80.53460 12946 ft 311 kts 322°
2026-05-06 01:02 34.80996 -80.54444 12752 ft 310 kts 322°
2026-05-06 01:02 34.82764 -80.55921 12447 ft 309 kts 322°
2026-05-06 01:03 34.84522 -80.57410 12140 ft 306 kts 318°
2026-05-06 01:03 34.86144 -80.59075 11837 ft 304 kts 316°
2026-05-06 01:03 34.88280 -80.61279 11444 ft 303 kts 316°
2026-05-06 01:03 34.89367 -80.62391 11254 ft 302 kts 316°
2026-05-06 01:04 34.91495 -80.64560 10853 ft 296 kts 316°
2026-05-06 01:04 34.92548 -80.65631 10653 ft 288 kts 316°
2026-05-06 01:04 34.94067 -80.67175 10375 ft 283 kts 316°
2026-05-06 01:04 34.95575 -80.68708 10115 ft 282 kts 316°
2026-05-06 01:05 34.97062 -80.70220 10051 ft 276 kts 316°
2026-05-06 01:05 34.98536 -80.71718 10035 ft 276 kts 316°
2026-05-06 01:05 35.00009 -80.73218 10024 ft 275 kts 316°
2026-05-06 01:05 35.01458 -80.74700 10023 ft 275 kts 315°
2026-05-06 01:06 35.02896 -80.76228 10015 ft 275 kts 315°
2026-05-06 01:06 35.04337 -80.77759 10018 ft 275 kts 315°
2026-05-06 01:06 35.05777 -80.79289 10016 ft 274 kts 315°
2026-05-06 01:06 35.07218 -80.80815 10013 ft 275 kts 316°
2026-05-06 01:07 35.08896 -80.81935 10007 ft 277 kts 341°
2026-05-06 01:07 35.10812 -80.82221 10061 ft 278 kts 350°
2026-05-06 01:07 35.12741 -80.82406 10024 ft 278 kts 350°
2026-05-06 01:07 35.14665 -80.82581 10006 ft 277 kts 350°
2026-05-06 01:08 35.16593 -80.82749 9918 ft 276 kts 350°
2026-05-06 01:08 35.18488 -80.82912 9698 ft 270 kts 350°
2026-05-06 01:08 35.20348 -80.83070 9419 ft 267 kts 350°
2026-05-06 01:08 35.22206 -80.83228 9091 ft 267 kts 350°
2026-05-06 01:09 35.24056 -80.83385 8735 ft 267 kts 351°
2026-05-06 01:09 35.25905 -80.83541 8419 ft 266 kts 351°
2026-05-06 01:09 35.27736 -80.83696 8080 ft 260 kts 351°
2026-05-06 01:09 35.29530 -80.83848 7735 ft 255 kts 351°
2026-05-06 01:10 35.31296 -80.83997 7361 ft 253 kts 351°
2026-05-06 01:10 35.33040 -80.84175 6990 ft 251 kts 351°
2026-05-06 01:10 35.34784 -80.84361 6605 ft 251 kts 351°
2026-05-06 01:10 35.36525 -80.84546 6208 ft 252 kts 351°
2026-05-06 01:11 35.38273 -80.84733 5806 ft 252 kts 351°
2026-05-06 01:11 35.40021 -80.84919 5409 ft 252 kts 352°
2026-05-06 01:11 35.41767 -80.85106 5019 ft 252 kts 351°
2026-05-06 01:11 35.43505 -80.85309 4654 ft 249 kts 347°
2026-05-06 01:12 35.45035 -80.86116 4286 ft 235 kts 314°
2026-05-06 01:12 35.45939 -80.87673 3957 ft 219 kts 281°
2026-05-06 01:12 35.45990 -80.89455 3687 ft 205 kts 250°
2026-05-06 01:12 35.45494 -80.91031 3465 ft 191 kts 242°
2026-05-06 01:13 35.44966 -80.92459 3235 ft 179 kts 241°
2026-05-06 01:13 35.44391 -80.93746 3144 ft 170 kts 227°
2026-05-06 01:13 35.43503 -80.94672 3121 ft 167 kts 210°
2026-05-06 01:13 35.42385 -80.95012 3109 ft 168 kts 186°
2026-05-06 01:14 35.40036 -80.95044 3118 ft 169 kts 180°
2026-05-06 01:14 35.38860 -80.94991 3099 ft 169 kts 179°
2026-05-06 01:14 35.37717 -80.94913 3095 ft 153 kts 179°
2026-05-06 01:15 35.36735 -80.94836 3101 ft 133 kts 180°
2026-05-06 01:15 35.35829 -80.94764 3162 ft 129 kts 180°
2026-05-06 01:15 35.34923 -80.94690 3053 ft 131 kts 179°
2026-05-06 01:15 35.34014 -80.94614 2919 ft 131 kts 179°
2026-05-06 01:16 35.33101 -80.94536 2776 ft 131 kts 178°
2026-05-06 01:16 35.32195 -80.94455 2626 ft 131 kts 179°
2026-05-06 01:16 35.31291 -80.94379 2469 ft 130 kts 179°
2026-05-06 01:16 35.30387 -80.94303 2305 ft 130 kts 178°
2026-05-06 01:17 35.29476 -80.94224 2138 ft 132 kts 178°
2026-05-06 01:17 35.28557 -80.94144 1979 ft 133 kts 179°
2026-05-06 01:17 35.27649 -80.94067 1781 ft 129 kts 179°
2026-05-06 01:17 35.26744 -80.93989 1636 ft 132 kts 176°
2026-05-06 01:18 35.25826 -80.93909 1412 ft 137 kts 176°
2026-05-06 01:18 35.24871 -80.93827 1289 ft 139 kts 178°
2026-05-06 01:18 35.23909 -80.93744 1059 ft 137 kts 176°
2026-05-06 01:18 35.22957 -80.93663 849 ft 137 kts 176°
2026-05-06 01:19 35.22018 -80.93581 739 ft 116 kts 176°
2026-05-06 01:19 35.21472 -80.93533 737 ft 40 kts 175°
2026-05-06 01:19 35.21250 -80.93519 736 ft 16 kts 192°
2026-05-06 01:19 35.21222 -80.93630 735 ft 16 kts 310°
2026-05-06 01:20 35.21333 -80.93654 736 ft 17 kts 355°
2026-05-06 01:20 35.21460 -80.93666 735 ft 19 kts 356°
2026-05-06 01:20 35.21591 -80.93717 735 ft 21 kts 313°
2026-05-06 01:20 35.21692 -80.93857 735 ft 23 kts 316°
2026-05-06 01:21 35.21807 -80.93986 733 ft 20 kts 317°
2026-05-06 01:21 35.21922 -80.94096 734 ft 19 kts 333°
2026-05-06 01:21 35.21990 -80.94112 735 ft 7 kts 359°
2026-05-06 01:21 35.22009 -80.94113 735 ft 0 kts 359°